Weather History for EGPF - August, 2013

Change the Weather History Date:

Sunday, August 25, 2013

  Actual Average Record
Temperature  
Mean Temperature 57 °F -  
Max Temperature 73 °F 61 °F 73 °F (2013)
Min Temperature 41 °F 46 °F 33 °F (2014)
Degree Days  
Heating Degree Days 8    
Growing Degree Days 7 (Base 50)    
Moisture  
Dew Point 50 °F    
Average Humidity 78    
Maximum Humidity 100    
Minimum Humidity 53    
Precipitation  
Precipitation 0.00 in - - ()
Sea Level Pressure  
Sea Level Pressure 30.08 in    
Wind  
Wind Speed 3 mph ()    
Max Wind Speed 7 mph    
Max Gust Speed -    
Visibility 6.2 miles    
Events Fog    
Averages and records for this station are not official NWS values.
T = Trace of Precipitation, MM = Missing Value Source: Averaged Metar Reports

Daily Weather History Graph

Daily Weather History Graph

Search for Another Location

Airport or City:

Trip Planner

Search our weather history database for the weather conditions in past years. The results will help you decide how hot, cold, wet, or windy it might be!

Date:

Astronomy

Aug. 25, 2013 Rise Set
Actual Time 6:08 AM BST 8:29 PM BST
Civil Twilight 5:28 AM BST 9:09 PM BST
Nautical Twilight 4:35 AM BST 10:01 PM BST
Astronomical Twilight 3:31 AM BST 11:05 PM BST
Moon 9:45 PM BST (8/25) 11:59 AM BST (8/25)
Length of Visible Light 15h 41m
Length of Day
14h 20m
Waning Gibbous, 78% of the Moon is Illuminated
Aug 25
Waning Gibbous
Aug 28
Last Quarter
Sep 5
New
Sep 12
First Quarter
Sep 19
Full

Hourly Weather History & Observations

Time (BST) Temp. Windchill Dew Point Humidity Pressure Visibility Wind Dir Wind Speed Gust Speed Precip Events Conditions
12:20 AM 46.4 °F - 44.6 °F 93% 29.98 in 6.2 mi Calm Calm - N/A   Partly Cloudy
12:50 AM 44.6 °F 42.2 °F 42.8 °F 93% 29.98 in - SW 4.6 mph - N/A   Clear
1:20 AM 46.4 °F 44.3 °F 44.6 °F 93% 30.01 in - West 4.6 mph - N/A   Clear
1:50 AM 44.6 °F 43.1 °F 44.6 °F 100% 30.01 in - West 3.5 mph - N/A   Clear
2:20 AM 44.6 °F - 42.8 °F 93% 30.01 in 6.2 mi Calm Calm - N/A   Partly Cloudy
2:50 AM 44.6 °F - 42.8 °F 93% 30.01 in - Variable 2.3 mph - N/A   Clear
3:20 AM 44.6 °F - 42.8 °F 93% 30.01 in 6.2 mi Calm Calm - N/A   Partly Cloudy
3:50 AM 42.8 °F 41.1 °F 41.0 °F 93% 30.01 in 6.2 mi SSW 3.5 mph - N/A   Partly Cloudy
4:20 AM 42.8 °F - 42.8 °F 100% 30.01 in 6.2 mi Variable 2.3 mph - N/A   Unknown
4:50 AM 41.0 °F 39.0 °F 41.0 °F 100% 30.04 in 6.2 mi West 3.5 mph - N/A   Unknown
5:20 AM 41.0 °F - 41.0 °F 100% 30.04 in - SW 2.3 mph - N/A   Clear
5:50 AM 42.8 °F 41.1 °F 41.0 °F 93% 30.04 in 6.2 mi WSW 3.5 mph - N/A Fog Scattered Clouds
6:20 AM 42.8 °F 41.1 °F 41.0 °F 93% 30.04 in 6.2 mi West 3.5 mph - N/A Fog Partly Cloudy
6:50 AM 42.8 °F - 41.0 °F 93% 30.06 in 6.2 mi West 2.3 mph - N/A   Partly Cloudy
7:20 AM 44.6 °F - 42.8 °F 93% 30.06 in - West 2.3 mph - N/A   Clear
7:50 AM 48.2 °F - 46.4 °F 93% 30.06 in - Calm Calm - N/A   Clear
8:20 AM 50.0 °F - 46.4 °F 87% 30.06 in - Variable 2.3 mph - N/A   Clear
8:50 AM 51.8 °F - 48.2 °F 88% 30.06 in - Variable 3.5 mph - N/A   Clear
9:20 AM 55.4 °F - 51.8 °F 88% 30.09 in - Variable 3.5 mph - N/A   Clear
9:50 AM 57.2 °F - 51.8 °F 82% 30.09 in - West 4.6 mph - N/A   Clear
10:20 AM 60.8 °F - 51.8 °F 72% 30.09 in - Variable 3.5 mph - N/A   Clear
10:50 AM 62.6 °F - 51.8 °F 68% 30.09 in - Variable 2.3 mph - N/A   Clear
11:20 AM 66.2 °F - 53.6 °F 64% 30.09 in - Calm Calm - N/A   Clear
11:50 AM 66.2 °F - 53.6 °F 64% 30.09 in - Variable 2.3 mph - N/A   Clear
12:20 PM 66.2 °F - 53.6 °F 64% 30.09 in - Variable 3.5 mph - N/A   Clear
12:50 PM 68.0 °F - 53.6 °F 60% 30.09 in - Variable 3.5 mph - N/A   Clear
1:20 PM 69.8 °F - 53.6 °F 56% 30.09 in - Variable 3.5 mph - N/A   Clear
1:50 PM 69.8 °F - 53.6 °F 56% 30.09 in - Variable 3.5 mph - N/A   Clear
2:20 PM 71.6 °F - 53.6 °F 53% 30.09 in 6.2 mi Variable 2.3 mph - N/A   Partly Cloudy
2:50 PM 69.8 °F - 55.4 °F 60% 30.09 in 6.2 mi Variable 3.5 mph - N/A   Partly Cloudy
3:20 PM 71.6 °F - 55.4 °F 57% 30.09 in 6.2 mi Variable 2.3 mph - N/A   Scattered Clouds
3:50 PM 73.4 °F - 55.4 °F 53% 30.09 in 6.2 mi Variable 3.5 mph - N/A   Mostly Cloudy
4:20 PM 69.8 °F - 55.4 °F 60% 30.12 in 6.2 mi NW 4.6 mph - N/A   Mostly Cloudy
4:50 PM 69.8 °F - 55.4 °F 60% 30.12 in 6.2 mi NW 4.6 mph - N/A   Mostly Cloudy
5:20 PM 69.8 °F - 55.4 °F 60% 30.12 in 6.2 mi WNW 4.6 mph - N/A   Mostly Cloudy
5:50 PM 69.8 °F - 55.4 °F 60% 30.12 in 6.2 mi NW 4.6 mph - N/A   Mostly Cloudy
6:20 PM 69.8 °F - 55.4 °F 60% 30.12 in - NW 6.9 mph - N/A   Clear
6:50 PM 69.8 °F - 53.6 °F 56% 30.12 in - WNW 5.8 mph - N/A   Clear
7:20 PM 68.0 °F - 51.8 °F 56% 30.12 in - WNW 5.8 mph - N/A   Clear
7:50 PM 64.4 °F - 53.6 °F 68% 30.12 in - West 5.8 mph - N/A   Clear
8:20 PM 60.8 °F - 53.6 °F 77% 30.12 in 6.2 mi West 4.6 mph - N/A   Scattered Clouds
8:50 PM 57.2 °F - 51.8 °F 82% 30.15 in 6.2 mi WSW 4.6 mph - N/A   Scattered Clouds
9:20 PM 53.6 °F - 50.0 °F 88% 30.15 in 6.2 mi WSW 5.8 mph - N/A   Scattered Clouds
9:50 PM 55.4 °F - 51.8 °F 88% 30.15 in 6.2 mi WSW 4.6 mph - N/A   Scattered Clouds
10:20 PM 53.6 °F - 50.0 °F 88% 30.15 in 6.2 mi SW 5.8 mph - N/A   Scattered Clouds
10:50 PM 55.4 °F - 51.8 °F 88% 30.15 in 6.2 mi SW 5.8 mph - N/A   Mostly Cloudy
11:20 PM 57.2 °F - 53.6 °F 88% 30.15 in 6.2 mi SW 4.6 mph - N/A   Mostly Cloudy
11:50 PM 57.2 °F - 53.6 °F 88% 30.15 in 6.2 mi WSW 4.6 mph - N/A   Mostly Cloudy